Location: Kitt Peak
(31.9514°N, 111.6156°W)
Time: 14:52:32
(UTC-07:00)

Envisat - Visible Passes

Search period start: 22 January 2022 00:00
Search period end: 01 February 2022 00:00
Orbit: 764 x 766 km, 98.2° (Epoch: 22 January)

Date Brightness Start Highest point End Pass type
(mag) Time Alt. Az. Time Alt. Az. Time Alt. Az.
22 Jan 3.7 04:54:34 10° NNE 04:59:30 52° E 05:04:25 10° S visible
22 Jan 4.5 06:35:18 10° NNW 06:38:00 15° WNW 06:40:44 10° W visible
23 Jan 5.2 04:18:42 10° NE 04:22:30 21° E 04:26:16 10° SE visible
23 Jan 3.5 05:56:57 10° N 06:01:29 34° WNW 06:06:01 10° SW visible
24 Jan 2.8 05:19:42 10° N 05:24:46 84° WNW 05:29:50 10° SSW visible
25 Jan 4.2 04:43:09 10° NNE 04:47:53 39° E 04:52:35 10° SSE visible
25 Jan 4.2 06:23:03 10° NNW 06:26:33 19° WNW 06:30:03 10° WSW visible
26 Jan 5.6 04:07:45 10° ENE 04:10:49 16° E 04:13:52 10° SE visible
26 Jan 3.2 05:45:10 10° N 05:49:58 44° WNW 05:54:45 10° SW visible
27 Jan 3.1 05:08:07 10° NNE 05:13:12 75° ESE 05:18:15 10° S visible
27 Jan 4.8 06:51:07 10° WNW 06:51:30 10° WNW 06:51:54 10° WNW visible
28 Jan 4.7 04:31:50 10° NE 04:36:15 30° E 04:40:39 10° SSE visible
28 Jan 3.9 06:11:01 10° NNW 06:15:04 25° WNW 06:19:07 10° WSW visible
29 Jan 5.9 03:57:20 10° ENE 03:59:08 12° E 04:00:55 10° ESE visible
29 Jan 2.9 05:33:27 10° N 05:38:25 59° WNW 05:43:23 10° SSW visible
30 Jan 3.5 04:56:37 10° NNE 05:01:36 56° E 05:06:33 10° S visible
30 Jan 4.6 06:37:38 10° NW 06:40:04 14° WNW 06:42:29 10° W visible
31 Jan 5.1 04:20:38 10° NE 04:24:36 23° E 04:28:32 10° SSE visible
31 Jan 3.6 05:59:07 10° N 06:03:34 32° WNW 06:08:00 10° SW visible
